{"data":{"norad_id":67897,"epoch":"2026-05-25T01:20:34.123200Z","epoch_age_seconds":73372,"freshness":"FRESH","line1":"1 67897U 26035U   26145.05595050  .00017412  00000+0  54018-3 0  9995","line2":"2 67897  97.2838  78.6193 0001543 104.4269 255.7145 15.33458671 15692","mean_motion":15.33458671,"eccentricity":0.0001543,"inclination_deg":97.2838,"raan_deg":78.6193,"arg_perigee_deg":104.4269,"mean_anomaly_deg":255.7145,"bstar":0.00054018,"rev_number":1569,"period_min":93.905367469796,"perigee_km":464.44652592791,"apogee_km":466.55847307746,"semimajor_km":6843.6394995027,"source":"CELESTRAK","updated_at":"2026-05-25T13:38:21.735601Z"}}